Home   Weather   Wells   Past weeks

Flag for USA Past Weather in Wells, Maine, USA — Yesterday and Last 2 Weeks

Now
44 °F

Clear.


Feels Like: 44 °F
Forecast: 51 / 65 °F
Wind: No wind

Location: Sanford Municipal

Current Time: May 22, 2018 at 2:21:31 am

Latest Report: May 22, 2018 at 1:56 am


Visibility: 10 mi

Pressure: 30.14 "Hg

Humidity: 93%

Dew Point: 42 °F

Location of WellsLocation

Past Weather in Wells — Graph

°F

Wells Temperature Yesterday

Maximum temperature yesterday: 78 °F (at 4:56 pm)
Minimum temperature yesterday: 40 °F (at 4:56 am)
Average temperature yesterday: 60 °F

High & Low Weather Summary for the Past Weeks

 TemperatureHumidityPressure
High84 °F (May 15, 2:56 pm)100% (May 7, 12:56 am)30.47 "Hg (May 7, 12:56 am)
Low29 °F (May 13, 4:56 am)19% (May 11, 4:56 pm)29.67 "Hg (May 15, 2:56 pm)
Average54 °F75%30.08 "Hg
* Reported May 7 12:56 am — May 22 12:56 am, Wells. Weather by CustomWeather, © 2018

Note: Actual official high and low records may vary slightly from our data, if they occured in-between our weather recording intervals... More about our weather records

Advertising

Wells Weather History for the Previous 24 Hours

Scroll right to see more
 ConditionsComfort  
Time TempWeatherWind HumidityBarometerVisibility
12:56 am
Tue, May 22
45 °FClear.No wind97%30.13 "Hg10 mi
11:56 pm
Mon, May 21
48 °FClear.3 mph93%30.13 "Hg10 mi
10:56 pm53 °FClear.No wind80%30.13 "Hg10 mi
9:56 pm62 °FClear.No wind56%30.12 "Hg10 mi
8:56 pm56 °FClear.6 mph75%30.09 "Hg10 mi
7:56 pm68 °FSunny.5 mph45%30.07 "Hg9 mi
5:56 pm78 °FSunny.8 mph24%30.04 "Hg10 mi
4:56 pm78 °FSunny.15 mph24%30.03 "Hg10 mi
3:56 pm77 °FSunny.16 mph26%30.04 "Hg10 mi
2:56 pm77 °FSunny.12 mph23%30.07 "Hg10 mi
1:56 pm75 °FSunny.9 mph26%30.09 "Hg10 mi
12:56 pm74 °FSunny.12 mph24%30.11 "Hg10 mi
11:56 am72 °FSunny.7 mph26%30.13 "Hg10 mi
10:56 am70 °FSunny.6 mph25%30.14 "Hg10 mi
9:56 am68 °FSunny.6 mph33%30.15 "Hg10 mi
8:56 am65 °FSunny.5 mph40%30.16 "Hg10 mi
7:56 am60 °FSunny.6 mph60%30.15 "Hg10 mi
6:56 am52 °FSunny.No wind89%30.14 "Hg10 mi
5:56 am41 °FSunny.No wind96%30.11 "Hg10 mi
4:56 am40 °FClear.No wind100%30.09 "Hg10 mi
3:56 am41 °FClear.No wind96%30.07 "Hg10 mi
2:56 am43 °FClear.No wind97%30.06 "Hg10 mi
Weather by CustomWeather, © 2018

See weather overview